Location: Newark
(45.9456°N, 15.4064°E)
Time: 13:40:03
(UTC+00:00)

Vanguard 3 - Pass Details

Date: 27 January 2020
Orbit: 508 x 3263 km, 33.3° (Epoch: 24 February)

Event Time Altitude Azimuth Distance (km) Brightness Sun altitude
Rises 22:22:09 0° 277° (W) 6,774 12.0 -60.7°
Reaches altitude 10° 22:29:12 10° 262° (W) 5,281 11.3 -61.1°
Enters shadow 22:30:34 12° 257° (WSW) 5,012 11.1 -61.2°
Maximum altitude 22:37:17 17° 228° (SW) 3,980 - -61.6°
Drops below altitude 10° 22:43:32 10° 192° (SSW) 3,882 - -61.9°
Sets 22:47:33 0° 173° (S) 4,388 - -62.0°
